Medicine Lodge, KS

12:16 PM CDT on May 21, 2018 (GMT -0500)
Medicine Lodge

Weather History for KP28 - February, 2014

Change the Weather History Date:

Sunday, February 16, 2014

  Actual Average Record
Temperature  
Mean Temperature 45 °F 38 °F  
Max Temperature 59 °F 51 °F 77 °F (2011)
Min Temperature 30 °F 26 °F -8 °F (1903)
Degree Days  
Heating Degree Days 20 27  
Month to date heating degree days 657 455  
Since 1 July heating degree days 3649 3232  
Cooling Degree Days 0 0  
Month to date cooling degree days 0 0  
Year to date cooling degree days 0 0  
Moisture  
Dew Point 31 °F    
Average Humidity 63    
Maximum Humidity 92    
Minimum Humidity 33    
Precipitation  
Precipitation 0.00 in 0.04 in 1.88 in (1911)
Month to date precipitation 0.78 0.51  
Year to date precipitation 0.93 1.22  
Snow  
Snow 0.00 in 0.10 in - ()
Month to date snowfall 0.0 1.6  
Since 1 July snowfall 10.0 7.8  
Snow Depth 0.00 in    
Sea Level Pressure  
Sea Level Pressure 29.97 in    
Wind  
Wind Speed 8 mph (SE)    
Max Wind Speed 20 mph    
Max Gust Speed 27 mph    
T = Trace of Precipitation, MM = Missing Value Source: NWS Daily Summary

Daily Weather History Graph

Daily Weather History Graph

Search for Another Location

Airport or City:

Astronomy

Feb. 16, 2014 Rise Set
Actual Time 7:22 AM CST 6:15 PM CST
Civil Twilight 6:55 AM CST 6:41 PM CST
Nautical Twilight 6:24 AM CST 7:12 PM CST
Astronomical Twilight 5:54 AM CST 7:42 PM CST
Moon 8:09 PM CST (2/16) 7:55 AM CST (2/16)
Length of Visible Light 11h 46m
Length of Day
10h 53m
Full, 97% of the Moon is Illuminated
Feb 16
Full
Feb 22
Last Quarter
Mar 1
New
Mar 8
First Quarter
Mar 16
Full

Hourly Weather History & Observations

Time (CST) Temp. Windchill Dew Point Humidity Pressure Visibility Wind Dir Wind Speed Gust Speed Precip Events Conditions
12:56 AM 39.9 °F 36.7 °F 34.0 °F 79% 30.09 in - SSW 4.6 mph - N/A   Unknown
1:56 AM 39.0 °F 36.8 °F 33.1 °F 79% 30.11 in - NNW 3.5 mph - N/A   Unknown
2:56 AM 37.0 °F 34.5 °F 32.0 °F 82% 30.11 in - North 3.5 mph - N/A   Unknown
3:56 AM 34.0 °F 31.0 °F 30.9 °F 89% 30.10 in - North 3.5 mph - N/A   Unknown
4:56 AM 30.0 °F 26.5 °F 28.9 °F 96% 30.09 in - North 3.5 mph - N/A   Unknown
5:56 AM 30.0 °F 26.5 °F 28.0 °F 92% 30.08 in - North 3.5 mph - N/A   Unknown
6:56 AM 30.9 °F - 28.0 °F 89% 30.07 in - Calm Calm - N/A   Unknown
7:56 AM 30.9 °F - 28.0 °F 89% 30.08 in - Calm Calm - N/A   Unknown
8:56 AM 39.9 °F 35.8 °F 30.9 °F 70% 30.10 in - Variable 5.8 mph - N/A   Unknown
9:56 AM 44.1 °F 38.1 °F 32.0 °F 63% 30.08 in - SE 11.5 mph 20.7 mph N/A   Unknown
10:56 AM 48.9 °F - 32.0 °F 52% 30.08 in - SE 9.2 mph - N/A   Unknown
11:56 AM 53.1 °F - 32.0 °F 45% 30.04 in - SSE 11.5 mph 17.3 mph N/A   Unknown
12:56 PM 54.0 °F - 32.0 °F 43% 29.99 in - South 15.0 mph 19.6 mph N/A   Unknown
1:56 PM 55.0 °F - 30.9 °F 40% 29.95 in - SE 12.7 mph 20.7 mph N/A   Unknown
2:56 PM 57.0 °F - 28.9 °F 34% 29.89 in - SSE 13.8 mph 23.0 mph N/A   Unknown
3:56 PM 57.9 °F - 30.0 °F 35% 29.87 in - SSE 15.0 mph 24.2 mph N/A   Unknown
4:56 PM 55.9 °F - 30.0 °F 37% 29.87 in - SE 10.4 mph 20.7 mph N/A   Unknown
5:56 PM 53.1 °F - 30.0 °F 41% 29.87 in - SE 6.9 mph - N/A   Unknown
6:56 PM 51.1 °F - 30.0 °F 44% 29.85 in - ESE 9.2 mph - N/A   Unknown
7:56 PM 48.9 °F - 30.0 °F 48% 29.83 in - ESE 8.1 mph - N/A   Unknown
8:56 PM 46.9 °F - 30.0 °F 52% 29.80 in - ESE 9.2 mph 17.3 mph N/A   Unknown
9:56 PM 46.0 °F 41.0 °F 30.0 °F 54% 29.78 in - ESE 10.4 mph - N/A   Unknown
10:56 PM 44.1 °F 39.5 °F 33.1 °F 65% 29.76 in - ESE 8.1 mph - N/A   Unknown
11:56 PM 44.1 °F 39.5 °F 37.0 °F 76% 29.74 in - SE 8.1 mph - N/A   Unknown